[[{"header":{"parameterUnit":"m.s-1","parameterCategory":1,"la1":30.2991,"la2":30.254,"lo1":-89.0895,"lo2":-89.0444,"dy":0.0017,"dx":0.0017,"nx":28,"ny":28,"refTime":"2024-12-25T09:00:00:Z","depth":0,"parameterNumber":2,"parameterNumberName":"U-component_of_WINDS"},"data":[0,0,0,0,0,0,0,0,0,0,0,0,0,0,0,0,0,0,0,0,0,0,0,0,0,0,0,0,0,0,0,0,0,0,0,0,0,0,0,0,0,0,0,0,0,0,0,0,0,0,0,0,0,0,0,0,0,0,-5.4925,-5.4927,0,-5.5107,-5.511,-5.5112,-5.515,-5.5148,-5.5147,-5.5146,-5.5334,-5.534,-5.5347,0,0,0,0,0,0,0,0,0,0,0,0,0,-5.4611,-5.4617,-5.4925,-5.4927,-5.4929,-5.5107,-5.511,-5.5112,-5.515,-5.5148,-5.5147,-5.5145,-5.5332,-5.534,-5.5347,0,0,0,0,0,0,0,0,0,0,0,0,0,-5.4766,-5.4619,-5.4924,-5.4969,-5.4975,-5.5107,-5.511,-5.5113,-5.515,-5.5148,-5.5146,-5.5144,-5.533,-5.5339,-5.5348,-5.5448,0,0,-5.5377,-5.5381,0,0,0,0,0,0,0,0,-5.4757,-5.4778,-5.4961,-5.4967,-5.4973,-5.5104,-5.5068,-5.5225,-5.5151,-5.5084,-5.5146,-5.5143,-5.5259,-5.5274,-5.5313,-5.5457,-5.5465,-5.5378,-5.5384,-5.5388,-5.5391,0,0,0,0,0,0,0,-5.4747,-5.477,-5.4997,-5.4963,-5.4971,-5.4982,-5.5001,-5.5098,-5.5181,-5.509,-5.5093,-5.5114,-5.5262,-5.5304,-5.5318,-5.5468,-5.5378,-5.5386,-5.5392,-5.5396,-5.5704,-5.5706,0,0,0,0,0,0,-5.4728,-5.4761,-5.4991,-5.5002,-5.4858,-5.4989,-5.5011,-5.5064,-5.518,-5.5196,-5.5115,-5.5115,-5.5289,-5.5307,-5.5325,-5.545,-5.5388,-5.5397,-5.5402,-5.5702,-5.5705,-5.5707,0,0,0,0,0,0,-5.4721,-5.4748,-5.4984,-5.4883,-5.4913,-5.4996,-5.5056,-5.5069,-5.511,-5.5199,-5.5215,-5.5142,-5.5288,-5.5311,-5.5417,-5.5457,-5.5401,-5.5409,-5.5699,-5.5702,-5.5706,-5.5699,0,0,0,0,0,0,-5.4711,-5.4745,-5.4783,-5.4883,-5.4919,-5.5072,-5.5058,-5.5074,-5.5126,-5.5127,-5.5229,-5.5244,-5.5288,-5.5403,-5.5427,-5.5469,-5.5417,-5.5695,-5.57,-5.5705,-5.5696,-5.5703,-5.5708,0,0,0,0,0,-5.47,-5.4774,-5.4784,-5.4812,-5.4968,-5.5074,-5.5095,-5.5144,-5.5129,-5.5168,-5.5226,-5.5241,-5.5449,-5.5413,-5.5441,-5.5486,-5.5693,-5.5699,-5.5704,-5.5694,-5.5701,-5.5708,0,0,0,0,0,0,-5.4676,-5.4788,-5.4801,-5.4909,-5.4982,-5.508,-5.5131,-5.515,-5.5229,-5.5227,-5.5285,-5.5308,-5.541,-5.5459,-5.5418,-5.5589,-5.557,-5.5582,-5.5553,-5.5561,-5.5566,-5.5552,-5.5425,0,0,0,0,0,-5.4683,-5.476,-5.4854,-5.494,-5.4976,-5.5047,-5.5096,-5.5127,-5.5205,-5.5237,-5.5302,-5.5378,-5.5461,-5.5514,-5.5595,-5.5705,-5.5728,-5.5749,-5.5755,-5.5759,-5.5768,-5.5831,-5.5841,-5.5726,-5.5726,-5.5726,0,0,-5.4698,-5.4769,-5.4814,-5.4937,-5.4997,-5.5076,-5.5073,-5.5156,-5.5216,-5.525,-5.5353,-5.5404,-5.5493,-5.5601,-5.5652,-5.5645,-5.5805,-5.5766,-5.5769,-5.5776,-5.5837,-5.5848,-5.5858,-5.573,-5.5729,-5.5728,0,0,-5.4767,-5.4828,-5.4907,-5.4968,-5.5059,-5.5106,-5.5125,-5.5222,-5.5257,-5.5362,-5.539,-5.5462,-5.5603,-5.5666,-5.5716,-5.5811,-5.5827,-5.5836,-5.5864,-5.5925,-5.5934,-5.5942,-5.5976,-5.5987,-5.5844,-5.5844,-5.5844,0,-5.4775,-5.4894,-5.4945,-5.5028,-5.5081,-5.5116,-5.5197,-5.5254,-5.5367,-5.5404,-5.5395,-5.5574,-5.5636,-5.5759,-5.5783,-5.5822,-5.5847,-5.5823,-5.5928,-5.5937,-5.5946,-5.5979,-5.5991,-5.5845,-5.5845,-5.5845,-5.5845,0,-5.4899,-5.4981,-5.5034,-5.5143,-5.5203,-5.5284,-5.5349,-5.5404,-5.5431,-5.548,-5.5588,-5.5664,-5.5761,-5.5794,-5.5821,-5.5922,-5.5915,-5.5916,-5.5898,-5.5956,-5.5988,-5.6001,-5.5845,-5.5845,-5.5845,-5.5845,0,0,-5.4955,-5.5092,-5.5111,-5.5161,-5.5265,-5.533,-5.5414,-5.551,-5.5556,-5.5634,-5.5706,-5.5826,-5.5828,-5.5885,-5.592,-5.5973,-5.6044,-5.5969,-5.5972,-5.5979,-5.6161,-5.6158,-5.6172,-5.6056,-5.6059,-5.6061,-5.6153,0,-5.5036,-5.5185,-5.5235,-5.5359,-5.5437,-5.5472,-5.5546,-5.5618,-5.5667,-5.5741,-5.5795,-5.5879,-5.5875,-5.591,-5.5964,-5.6024,-5.6081,-5.6018,-5.6125,-5.6128,-5.61,-5.6189,-5.6186,-5.6269,-5.6166,-5.6168,-5.617,0,-5.5149,-5.5228,-5.536,-5.5456,-5.5491,-5.5555,-5.5647,-5.5717,-5.5801,-5.5833,-5.5898,-5.593,-5.602,-5.5998,-5.6124,-5.608,-5.6127,-5.6163,-5.6167,-5.6178,-5.6151,-5.6201,-5.6297,-5.6309,-5.619,-5.6188,-5.6187,0,-5.5176,-5.5316,-5.5414,-5.5456,-5.557,-5.5615,-5.5665,-5.5747,-5.5801,-5.5883,-5.5919,-5.601,-5.6059,-5.6129,-5.6185,-5.6164,-5.6307,-5.6289,-5.6336,-5.6335,-5.6363,-5.636,-5.6467,-5.6395,-5.6395,-5.6395,-5.6394,0,-5.526,-5.5339,-5.5427,-5.5487,-5.5578,-5.5635,-5.5724,-5.5776,-5.5849,-5.5921,-5.5958,-5.6024,-5.6095,-5.6171,-5.6216,-5.6314,-5.6336,-5.6365,-5.6375,-5.6361,-5.6357,-5.6391,-5.6387,-5.6398,-5.6397,-5.6397,-5.6396,0,-5.5305,-5.5367,-5.5475,-5.5575,-5.5603,-5.5665,-5.5751,-5.5811,-5.5862,-5.5952,-5.5977,-5.6057,-5.6149,-5.6212,-5.633,-5.6361,-5.6466,-5.6477,-5.6437,-5.6442,-5.6486,-5.6481,-5.6617,-5.6638,-5.6553,-5.6553,-5.6554,0,-5.5354,-5.5416,-5.5523,-5.5573,-5.5623,-5.5704,-5.576,-5.582,-5.5877,-5.5978,-5.6026,-5.6121,-5.6199,-5.6345,-5.6414,-5.6505,-5.6517,-5.6559,-5.6531,-5.6515,-5.6518,-5.6513,-5.652,-5.6563,-5.6563,-5.6564,-5.6564,0,-5.5434,-5.5462,-5.5541,-5.5631,-5.5697,-5.5771,-5.5846,-5.5885,-5.5959,-5.6021,-5.6115,-5.6176,-5.6297,-5.6391,-5.6489,-5.6542,-5.6566,-5.6573,-5.6589,-5.6574,-5.6548,-5.6562,-5.6448,-5.6569,-5.6569,-5.6568,-5.6568,-5.6568,-5.5483,-5.554,-5.5624,-5.5711,-5.5774,-5.5843,-5.5904,-5.5963,-5.6043,-5.6145,-5.6176,-5.6274,-5.6359,-5.6493,-5.6548,-5.6626,-5.6623,-5.6646,-5.6651,-5.6656,-5.6655,-5.6537,-5.6644,-5.6644,-5.6644,-5.6644,-5.6644,0,-5.5565,-5.5621,-5.5701,-5.5804,-5.5873,-5.589,-5.5974,-5.603,-5.6116,-5.6192,-5.6269,-5.6378,-5.6469,-5.6547,-5.6642,-5.669,-5.6703,-5.6713,-5.6709,-5.6721,-5.6653,-5.6629,-5.67,-5.67,-5.67,-5.67,-5.67,-5.67,-5.5616,-5.5713,-5.5751,-5.5881,-5.5937,-5.6033,-5.6079,-5.6144,-5.6205,-5.6325,-5.6401,-5.6451,-5.6528,-5.663,-5.6715,-5.6735,-5.6768,-5.6775,-5.6798,-5.6732,-5.6726,-5.672,-5.6698,-5.6782,-5.6782,-5.686,-5.6861,-5.6861]},{"header":{"parameterUnit":"m.s-1","parameterCategory":1,"la1":30.2991,"la2":30.254,"lo1":-89.0895,"lo2":-89.0444,"dy":0.0017,"dx":0.0017,"nx":28,"ny":28,"refTime":"2024-12-25T09:00:00:Z","depth":0,"parameterNumber":3,"parameterNumberName":"V-component_of_WINDS"},"data":[0,0,0,0,0,0,0,0,0,0,0,0,0,0,0,0,0,0,0,0,0,0,0,0,0,0,0,0,0,0,0,0,0,0,0,0,0,0,0,0,0,0,0,0,0,0,0,0,0,0,0,0,0,0,0,0,0,0,3.6067,3.6067,0,3.6124,3.6124,3.6125,3.6126,3.6125,3.6125,3.6124,3.6181,3.6183,3.6185,0,0,0,0,0,0,0,0,0,0,0,0,0,3.5958,3.596,3.6066,3.6067,3.6068,3.6124,3.6124,3.6125,3.6126,3.6125,3.6124,3.6124,3.618,3.6182,3.6185,0,0,0,0,0,0,0,0,0,0,0,0,0,3.6009,3.5961,3.6066,3.6075,3.6077,3.6124,3.6124,3.6125,3.6126,3.6125,3.6124,3.6123,3.6179,3.6182,3.6185,3.6227,0,0,3.6195,3.6197,0,0,0,0,0,0,0,0,3.6006,3.6013,3.6073,3.6075,3.6076,3.6117,3.6107,3.6159,3.6127,3.6107,3.6124,3.6123,3.616,3.6165,3.6178,3.6229,3.6232,3.6196,3.6198,3.6199,3.62,0,0,0,0,0,0,0,3.6003,3.6011,3.6089,3.6074,3.6076,3.6076,3.6082,3.6117,3.6139,3.6109,3.6109,3.6116,3.6161,3.6175,3.6179,3.6233,3.6195,3.6198,3.62,3.6202,3.6325,3.6326,0,0,0,0,0,0,3.5998,3.6008,3.6087,3.6091,3.6038,3.6079,3.6086,3.6105,3.6139,3.6143,3.6117,3.6116,3.617,3.6175,3.6181,3.6235,3.6199,3.6202,3.6204,3.6324,3.6325,3.6327,0,0,0,0,0,0,3.5995,3.6005,3.6085,3.605,3.606,3.6082,3.6103,3.6106,3.6121,3.6145,3.6148,3.6127,3.6169,3.6177,3.6216,3.6237,3.6203,3.6206,3.6322,3.6324,3.6326,3.6341,0,0,0,0,0,0,3.5992,3.6004,3.602,3.605,3.6062,3.6119,3.6104,3.6108,3.6126,3.6126,3.6155,3.6159,3.6169,3.6212,3.622,3.6241,3.6209,3.6321,3.6323,3.6326,3.6338,3.6343,3.6347,0,0,0,0,0,3.5988,3.602,3.602,3.603,3.6082,3.612,3.6127,3.6138,3.6128,3.6144,3.616,3.6158,3.6233,3.6216,3.6225,3.6247,3.6319,3.6322,3.6325,3.6337,3.6342,3.6346,0,0,0,0,0,0,3.599,3.6024,3.6025,3.6067,3.6091,3.612,3.6141,3.6143,3.6169,3.6168,3.6179,3.6186,3.6227,3.624,3.6221,3.6291,3.6275,3.628,3.628,3.6286,3.629,3.6286,3.6212,0,0,0,0,0,3.5996,3.6024,3.6052,3.6087,3.6099,3.6118,3.6135,3.6142,3.6167,3.6177,3.6196,3.622,3.6249,3.6268,3.6295,3.634,3.6348,3.636,3.6364,3.6367,3.6372,3.64,3.6406,3.6337,3.6337,3.6337,0,0,3.6007,3.6029,3.6046,3.6088,3.6107,3.6138,3.6127,3.6158,3.6181,3.6181,3.6222,3.6236,3.6264,3.6307,3.6327,3.632,3.6393,3.6371,3.6373,3.6376,3.6404,3.641,3.6416,3.6339,3.6338,3.6338,0,0,3.6044,3.6062,3.6095,3.6115,3.6146,3.6159,3.6166,3.6196,3.6207,3.6247,3.6249,3.6276,3.6325,3.6346,3.6363,3.6411,3.6411,3.642,3.6442,3.6469,3.6474,3.6479,3.6499,3.6506,3.6424,3.6424,3.6424,0,3.6054,3.61,3.6111,3.6144,3.6164,3.6167,3.6201,3.622,3.6257,3.6271,3.6262,3.6327,3.6345,3.6395,3.6408,3.642,3.6431,3.6417,3.6472,3.6478,3.6482,3.6501,3.6509,3.6425,3.6425,3.6425,3.6425,0,3.6112,3.6144,3.6167,3.6205,3.6227,3.626,3.6278,3.6298,3.6304,3.6318,3.6361,3.6383,3.6418,3.643,3.6434,3.6481,3.6476,3.647,3.6455,3.649,3.6508,3.6515,3.6427,3.6426,3.6426,3.6426,0,0,3.615,3.6197,3.6205,3.6224,3.6259,3.6284,3.6318,3.6353,3.6372,3.6398,3.6428,3.6471,3.6467,3.6486,3.6493,3.6517,3.6557,3.6508,3.6509,3.6518,3.6614,3.662,3.6628,3.6557,3.6558,3.6559,3.6613,0,3.6193,3.6255,3.6268,3.6322,3.6353,3.6358,3.6388,3.6413,3.6428,3.6456,3.6472,3.6504,3.6494,3.6506,3.6529,3.6547,3.6577,3.6543,3.6587,3.6588,3.6582,3.6637,3.6643,3.6692,3.6619,3.6621,3.6621,0,3.625,3.628,3.6338,3.6372,3.6385,3.6412,3.6447,3.6474,3.6503,3.6512,3.6536,3.6541,3.6578,3.656,3.6613,3.659,3.6608,3.662,3.6622,3.6628,3.6608,3.6647,3.6708,3.6716,3.6632,3.6631,3.6631,0,3.6276,3.6331,3.6373,3.6389,3.6428,3.6448,3.6465,3.6493,3.6515,3.6545,3.6559,3.6592,3.6611,3.6637,3.6652,3.6637,3.6704,3.6687,3.6714,3.6714,3.6729,3.6729,3.6796,3.6738,3.6737,3.6737,3.6737,0,3.6323,3.6359,3.6386,3.6412,3.6453,3.6468,3.6508,3.6525,3.6551,3.6581,3.6586,3.6614,3.6631,3.6662,3.6674,3.6717,3.6725,3.6734,3.6737,3.6735,3.6734,3.6749,3.6747,3.6739,3.6739,3.6738,3.6738,0,3.636,3.6378,3.6426,3.6461,3.647,3.6499,3.6529,3.6555,3.6571,3.6609,3.6619,3.6643,3.6681,3.6698,3.6743,3.6751,3.6801,3.68,3.6792,3.6794,3.6821,3.6819,3.6902,3.6915,3.6845,3.6846,3.6847,0,3.6389,3.6417,3.6456,3.6478,3.6496,3.653,3.6553,3.6569,3.6592,3.663,3.6652,3.669,3.6721,3.678,3.6802,3.6837,3.6839,3.6866,3.6844,3.6843,3.6843,3.6842,3.6846,3.687,3.6871,3.6871,3.6872,0,3.6441,3.645,3.6483,3.652,3.6548,3.6577,3.6606,3.6623,3.6644,3.667,3.6709,3.6734,3.6782,3.682,3.6857,3.6875,3.6878,3.6878,3.6887,3.6886,3.6881,3.6887,3.6805,3.6877,3.6876,3.6876,3.6876,3.6875,3.6477,3.6504,3.6536,3.6573,3.6598,3.6625,3.6653,3.6673,3.6706,3.6748,3.6755,3.6797,3.6828,3.6879,3.6899,3.6933,3.6926,3.6938,3.6942,3.6945,3.6948,3.6875,3.6939,3.6939,3.6939,3.6939,3.6939,0,3.6532,3.6554,3.6588,3.663,3.666,3.666,3.6693,3.6718,3.6756,3.6785,3.6817,3.6863,3.6901,3.6926,3.6965,3.6987,3.699,3.6997,3.6997,3.7002,3.695,3.694,3.6995,3.6995,3.6995,3.6995,3.6995,3.6995,3.6564,3.661,3.6624,3.6682,3.6704,3.6747,3.6766,3.6792,3.6816,3.6868,3.69,3.6917,3.6946,3.6987,3.7022,3.7029,3.7044,3.7052,3.7059,3.7011,3.7005,3.6999,3.699,3.7055,3.7055,3.7108,3.7109,3.7109]}]]